Tracking 19177 objects as of 25-May-2018
HD Live streaming from Space Station
objects crossing your sky now

ORBCOMM FM 7

Track ORBCOMM FM 7 now!
10-day predictions
ORBCOMM FM 7 is classified as:


NORAD ID: 25119
Int'l Code: 1997-084H
Perigee: 767.9 km
Apogee: 771.7 km
Inclination: 45.0 °
Period: 100.1 minutes
Semi major axis: 7140 km
RCS: 0.4683 m2 (medium)
Launch date: December 23, 1997
Source: ORBCOMM (ORB)
Launch site: Pegasus launched from Eastern Range Air Space (ERAS)
aabbcc
Your satellite tracking list
Your tracking list is empty




NASA's NSSDC Master Catalog

Two Line Element Set (TLE):
1 25119U 97084H   18144.55221964 +.00000055 +00000-0 +63895-4 0  9993
2 25119 045.0174 048.5436 0002676 226.3039 133.7588 14.38735421069443
Source of the keplerian elements: AFSPC